When you browse on this site, cookies collect data to enhance your experience and personalize the content and advertising you see.
Visit our Privacy Policy to learn more. By continuing to use the site, you agree to this use of cookies and data.
  • In Spain
  • List of Countries
  • For 7 days
  • Water Temperature
  • Satellite Maps
  • Weather Map
  • Weather Widgets
  • user-avatar
    Login

    Hourly Weather Barybino

    Today, 23 March, Saturday

    Time Temperature Precipitation Wind Pressure Humidity
    00:00 -4°C° 0.1 mm 7 mps 740 mmHg 87%
    01:00 -4°C° 0.1 mm 7 mps 740 mmHg 88%
    02:00 -4°C° 0.1 mm 6 mps 740 mmHg 88%
    03:00 -4°C° 0 mm 5 mps 740 mmHg 90%
    04:00 -2°C° 0.1 mm 5 mps 741 mmHg 91%
    05:00 -2°C° 0.1 mm 5 mps 741 mmHg 92%
    06:00 -3°C° 0.1 mm 6 mps 742 mmHg 92%
    07:00 -3°C° 0.1 mm 6 mps 743 mmHg 92%
    08:00 -3°C° 0.1 mm 6 mps 744 mmHg 91%
    09:00 -3°C° 0 mm 6 mps 745 mmHg 90%
    10:00 -2°C° 0.1 mm 6 mps 745 mmHg 90%
    11:00 -2°C° 0.1 mm 6 mps 746 mmHg 91%
    12:00 -1°C° 0.1 mm 5 mps 746 mmHg 91%
    13:00 -1°C° 0 mm 5 mps 747 mmHg 91%
    14:00 -1°C° 0 mm 5 mps 747 mmHg 91%
    15:00 0°C° 0 mm 4 mps 747 mmHg 93%
    16:00 -1°C° 0 mm 4 mps 747 mmHg 92%
    17:00 -1°C° 0 mm 4 mps 747 mmHg 91%
    18:00 0°C° 0 mm 3 mps 747 mmHg 89%
    19:00 -1°C° 0 mm 3 mps 747 mmHg 91%
    20:00 -2°C° 0 mm 3 mps 747 mmHg 92%
    21:00 -3°C° 0 mm 2 mps 747 mmHg 93%
    22:00 -3°C° 0 mm 2 mps 747 mmHg 92%
    23:00 -2°C° 0 mm 2 mps 747 mmHg 91%

    Tomorrow, 24 March, Sunday

    Time Temperature Precipitation Wind Pressure Humidity
    00:00 0°C° 0 mm 1 mps 747 mmHg 91%
    01:00 0°C° 0 mm 1 mps 746 mmHg 90%
    02:00 -1°C° 0 mm 1 mps 746 mmHg 89%
    03:00 -1°C° 0 mm 1 mps 745 mmHg 89%
    04:00 -1°C° 0 mm 1 mps 745 mmHg 89%
    05:00 -2°C° 0 mm 1 mps 744 mmHg 88%
    06:00 -4°C° 0 mm 2 mps 744 mmHg 88%
    07:00 -3°C° 0 mm 2 mps 744 mmHg 88%
    08:00 -2°C° 0 mm 3 mps 743 mmHg 87%
    09:00 -2°C° 0 mm 3 mps 742 mmHg 86%
    10:00 -2°C° 0.2 mm 4 mps 742 mmHg 89%
    11:00 -2°C° 0.2 mm 4 mps 741 mmHg 91%
    12:00 -2°C° 0.2 mm 5 mps 741 mmHg 94%
    13:00 -2°C° 0.3 mm 5 mps 740 mmHg 95%
    14:00 -1°C° 0.3 mm 5 mps 740 mmHg 95%
    15:00 -1°C° 0.3 mm 5 mps 739 mmHg 96%
    16:00 -1°C° 0.1 mm 5 mps 739 mmHg 96%
    17:00 -1°C° 0.1 mm 4 mps 739 mmHg 97%
    18:00 0°C° 0.1 mm 3 mps 739 mmHg 97%
    19:00 0°C° 0 mm 3 mps 739 mmHg 96%
    20:00 -1°C° 0 mm 3 mps 739 mmHg 94%
    21:00 -2°C° 0 mm 3 mps 739 mmHg 93%
    22:00 -2°C° 0 mm 3 mps 739 mmHg 91%
    23:00 -2°C° 0 mm 3 mps 739 mmHg 90%

    Day after tomorrow, 25 March, Monday

    Time Temperature Precipitation Wind Pressure Humidity
    00:00 -4°C° 0 mm 3 mps 739 mmHg 89%
    01:00 -4°C° 0 mm 3 mps 739 mmHg 88%
    02:00 -4°C° 0 mm 3 mps 739 mmHg 88%
    03:00 -4°C° 0 mm 3 mps 739 mmHg 88%
    04:00 -5°C° 0 mm 3 mps 739 mmHg 88%
    05:00 -5°C° 0 mm 3 mps 739 mmHg 88%
    06:00 -5°C° 0 mm 3 mps 739 mmHg 88%
    07:00 -4°C° 0 mm 4 mps 739 mmHg 86%
    08:00 -4°C° 0 mm 4 mps 740 mmHg 83%
    09:00 -3°C° 0 mm 4 mps 740 mmHg 81%
    10:00 -2°C° 0 mm 4 mps 740 mmHg 80%
    11:00 -1°C° 0 mm 4 mps 740 mmHg 80%
    12:00 0°C° 0 mm 4 mps 740 mmHg 79%
    13:00 0°C° 0 mm 4 mps 740 mmHg 77%
    14:00 +1°C° 0 mm 4 mps 739 mmHg 75%
    15:00 +1°C° 0 mm 4 mps 739 mmHg 72%
    16:00 +1°C° 0 mm 4 mps 739 mmHg 74%
    17:00 +1°C° 0 mm 3 mps 739 mmHg 75%
    18:00 +1°C° 0 mm 3 mps 739 mmHg 77%
    19:00 0°C° 0 mm 3 mps 740 mmHg 79%
    20:00 -1°C° 0 mm 3 mps 740 mmHg 80%
    21:00 -1°C° 0 mm 3 mps 740 mmHg 82%
    22:00 -2°C° 0 mm 3 mps 740 mmHg 82%
    23:00 -2°C° 0 mm 3 mps 740 mmHg 82%

    26 March, Tuesday

    Time Temperature Precipitation Wind Pressure Humidity
    00:00 -2°C° 0 mm 3 mps 740 mmHg 83%
    01:00 -2°C° 0 mm 3 mps 740 mmHg 82%
    02:00 -2°C° 0 mm 3 mps 740 mmHg 81%
    03:00 -2°C° 0 mm 3 mps 740 mmHg 81%
    04:00 -2°C° 0 mm 3 mps 740 mmHg 81%
    05:00 -2°C° 0 mm 3 mps 739 mmHg 82%
    06:00 -2°C° 0 mm 3 mps 739 mmHg 82%
    07:00 -2°C° 0.1 mm 3 mps 739 mmHg 83%
    08:00 -2°C° 0.1 mm 4 mps 739 mmHg 84%
    09:00 -1°C° 0.1 mm 4 mps 739 mmHg 85%
    10:00 -1°C° 0 mm 4 mps 738 mmHg 85%
    11:00 0°C° 0 mm 4 mps 738 mmHg 84%
    12:00 +1°C° 0 mm 4 mps 737 mmHg 83%
    13:00 +1°C° 0 mm 4 mps 737 mmHg 82%
    14:00 +2°C° 0 mm 5 mps 736 mmHg 82%
    15:00 +2°C° 0 mm 5 mps 736 mmHg 81%
    16:00 +1°C° 1.7 mm 5 mps 735 mmHg 85%
    17:00 -1°C° 1.7 mm 6 mps 735 mmHg 90%
    18:00 -1°C° 1.7 mm 6 mps 734 mmHg 94%
    19:00 -2°C° 0.2 mm 6 mps 734 mmHg 93%
    20:00 -2°C° 0.2 mm 6 mps 734 mmHg 92%
    21:00 -2°C° 0.2 mm 6 mps 734 mmHg 91%
    22:00 -3°C° 0.3 mm 6 mps 734 mmHg 91%
    23:00 -4°C° 0.3 mm 7 mps 734 mmHg 91%

    27 March, Wednesday

    Time Temperature Precipitation Wind Pressure Humidity
    00:00 -6°C° 0.3 mm 7 mps 734 mmHg 90%
    01:00 -6°C° 0.5 mm 8 mps 734 mmHg 90%
    02:00 -7°C° 0.5 mm 8 mps 734 mmHg 89%
    03:00 -8°C° 0.5 mm 9 mps 735 mmHg 88%
    04:00 -8°C° 0.5 mm 9 mps 735 mmHg 86%
    05:00 -9°C° 0.5 mm 9 mps 735 mmHg 84%
    06:00 -9°C° 0.5 mm 10 mps 735 mmHg 81%
    07:00 -9°C° 0.3 mm 10 mps 736 mmHg 81%
    08:00 -9°C° 0.3 mm 10 mps 736 mmHg 81%
    09:00 -9°C° 0.3 mm 10 mps 736 mmHg 81%
    10:00 -8°C° 0.4 mm 10 mps 737 mmHg 82%
    11:00 -8°C° 0.4 mm 10 mps 738 mmHg 84%
    12:00 -8°C° 0.4 mm 10 mps 738 mmHg 86%
    13:00 -6°C° 0.2 mm 9 mps 739 mmHg 86%
    14:00 -6°C° 0.2 mm 9 mps 740 mmHg 87%
    15:00 -5°C° 0.2 mm 9 mps 740 mmHg 87%
    16:00 -5°C° 0.2 mm 8 mps 741 mmHg 86%
    17:00 -5°C° 0.2 mm 8 mps 742 mmHg 85%
    18:00 -4°C° 0.2 mm 7 mps 743 mmHg 84%
    19:00 -4°C° 0 mm 7 mps 744 mmHg 84%
    20:00 -5°C° 0 mm 6 mps 744 mmHg 84%
    21:00 -5°C° 0 mm 6 mps 745 mmHg 84%
    22:00 -6°C° 0 mm 5 mps 745 mmHg 85%
    23:00 -7°C° 0 mm 5 mps 746 mmHg 86%

    28 March, Thursday

    Time Temperature Precipitation Wind Pressure Humidity
    00:00 -8°C° 0 mm 4 mps 746 mmHg 87%
    01:00 -8°C° 0 mm 4 mps 747 mmHg 88%
    02:00 -8°C° 0 mm 4 mps 747 mmHg 88%
    03:00 -9°C° 0 mm 4 mps 748 mmHg 89%
    04:00 -9°C° 0 mm 4 mps 748 mmHg 89%
    05:00 -9°C° 0 mm 4 mps 748 mmHg 89%
    06:00 -9°C° 0 mm 3 mps 748 mmHg 90%
    07:00 -8°C° 0 mm 4 mps 748 mmHg 87%
    08:00 -7°C° 0 mm 4 mps 748 mmHg 84%
    09:00 -6°C° 0 mm 5 mps 748 mmHg 81%
    10:00 -5°C° 0 mm 5 mps 748 mmHg 80%
    11:00 -4°C° 0 mm 6 mps 747 mmHg 80%
    12:00 -3°C° 0 mm 7 mps 747 mmHg 80%
    13:00 -2°C° 0 mm 7 mps 746 mmHg 81%
    14:00 -2°C° 0 mm 6 mps 746 mmHg 82%
    15:00 -1°C° 0 mm 6 mps 745 mmHg 84%
    16:00 -1°C° 0.1 mm 6 mps 745 mmHg 84%
    17:00 -1°C° 0.1 mm 6 mps 744 mmHg 84%
    18:00 0°C° 0.1 mm 5 mps 743 mmHg 84%
    19:00 0°C° 0.2 mm 5 mps 743 mmHg 84%
    20:00 0°C° 0.2 mm 5 mps 742 mmHg 84%
    21:00 -1°C° 0.2 mm 6 mps 742 mmHg 85%
    22:00 -1°C° 0.4 mm 6 mps 741 mmHg 86%
    23:00 -1°C° 0.4 mm 6 mps 741 mmHg 88%
    Show more